392  
ASUS41 KCLE 192112  
RWRCLE  
OHIO REGIONAL WEATHER ROUNDUP  
NATIONAL WEATHER SERVICE WILMINGTON, OH  
500 PM EDT FRI JUL 19 2019  
 
NOTE: "FAIR" INDICATES FEW OR NO CLOUDS BELOW 12,000 FEET WITH NO  
SIGNIFICANT WEATHER AND/OR S TO VISIBILITY
.  
 
OHZ001>008-015>018-024>027-034-035-043-044-192200-  
NORTHWEST OHIO  
 
CITY SKY/WX TMP DP RH WIND PRES REMARKS
 
DEFIANCE FAIR 93 74 53 SW15G25 29.88F HX 103  
FINDLAY FAIR 94 76 55 SW13G23 29.89F HX 106  
TOLEDO EXPRESS FAIR 96 76 52 SW13G21 29.87S HX 109  
TOLEDO EXEC PTSUNNY 93 76 57 SW18G28 29.88S HX 105  
LIMA FAIR 91 75 59 SW16 29.93F HX 101  

 
 
OHZ009>014-019>023-028>033-038-089-192200-  
NORTHEAST OHIO  
 
CITY SKY/WX TMP DP RH WIND PRES REMARKS
 
CLE-HOPKINS FAIR 94 75 54 SW17G25 29.90F HX 105  
CLE-LAKEFRONT PTSUNNY 93 73 52 SW16G26 29.87F HX 102  
CUY CO. ARPT MOSUNNY 91 75 59 SW14G25 29.89F HX 102  
LORAIN-ELYRIA FAIR 93 72 50 SW20G26 29.90F HX 101  
ASHTABULA PTSUNNY 90 77 65 SW14G20 29.91S HX 103  
AKRON-CANTON FAIR 91 75 59 SW15G22 29.95F HX 101  
WOOSTER FAIR 88 78 72 SW13G18 29.94F HX 101  
MANSFIELD FAIR 92 76 59 SW16G23 29.95F HX 104  
YOUNGSTOWN PTSUNNY 89 75 63 S12G18 29.94S HX 99  

 
 
OHZ042-051>053-060>062-070>072-077>081-192200-  
SOUTHWEST OHIO  
 
CITY SKY/WX TMP DP RH WIND PRES REMARKS
 
CINC-COVINGTON PTSUNNY 92 74 55 SW12G18 29.97F HX 101  
CINC-LUNKEN FAIR 92 76 59 SW10 29.95F HX 104  
HAMILTON PTSUNNY 91 76 61 SW9 29.97S HX 103  
DAYTON PTSUNNY 91 74 57 SW16 29.97F HX 100  
WRIGHT-PAT AFB FAIR 92 74 56 SW14 29.95F HX 102  
DAYTON GENERAL FAIR 92 73 53 SW12 29.97R HX 100  
WILMINGTON FAIR 89 76 65 SW12 29.98R HX 100  

 
 
OHZ036-037-039>041-045>050-054>059-063>069-073>076-082>088-192200-  
CENTRAL AND SOUTHEAST OHIO  
 
CITY SKY/WX TMP DP RH WIND PRES REMARKS
 
COLUMBUS PTSUNNY 92 73 53 SW12 29.95S HX 100  
OSU AIRPORT PTSUNNY 92 74 55 SW15 29.95F HX 101  
BOLTON FIELD MOSUNNY 90 77 66 SW10G16 29.98R HX 102  
RICKENBACK AFB PTSUNNY 90 76 63 SW12G20 29.95F HX 101  
NEWARK FAIR 93 76 57 SW14 29.95F HX 105  
MARION FAIR 92 74 55 W13G22 29.94F HX 101  
LANCASTER FAIR 88 76 67 SW13 29.97S HX 99  
ZANESVILLE FAIR 90 75 61 SW7 29.97S HX 100  
NEW PHILLY FAIR 88 76 67 VRB5 29.96F HX 99  

 
 
 
CLICK HERE TO GO TO PREVIOUS BULLETINS.

The Nexlab OH Page
The Nexlab PA Page Main Text Page